Home > Weather > Benghazi > Past weeks

Flag for Libya Weather for the Past 2 Weeks in Benghazi, Libya

Now
45 °F

Passing clouds.


Feels Like: 41 °F
Forecast: 61 / 68 °F
Wind: 7 mph from West

Location: Souda Airport

Current Time: Feb 10, 2016 at 7:57:11 AM

Latest Report: Feb 10, 2016 at 6:50 AM


Visibility: N/A

Pressure: 30.09 "Hg

Humidity: 87%

Dew point: 41 °F

Location of BenghaziLocation

Historic Weather in Benghazi — Graph

°F

Benghazi Temperature Yesterday

Maximum temperature yesterday: 59 °F (at 12:50 PM)
Minimum temperature yesterday: 43 °F (at 12:20 AM)
Average temperature yesterday: 51 °F

High & Low Weather Summary for the Past Weeks

 TemperatureHumidityPressure
High70 °F (Feb 3, 1:20 PM)100% (Jan 30, 10:50 PM)30.45 "Hg (Jan 30, 10:50 PM)
Low39 °F (Feb 8, 4:50 AM)46% (Feb 3, 11:50 AM)29.77 "Hg (Feb 5, 1:20 PM)
Average53 °F78%30.24 "Hg
* Reported Jan 26 6:20 AM — Feb 10 6:20 AM, Benghazi, Weather by CustomWeather, © 2016

Note: Actual official high and low records may vary slightly from our data, if they occured in-between our weather recording intervals... More about our weather records

Advertising

Benghazi Weather History for the Previous 24 Hours

 ConditionsComfort  
Time TempWeatherWind HumidityBarometerVisibility
6:20 AM
Wed, Feb 10
48 °FPassing clouds.No wind87%30.09 "HgN/A
5:50 AM48 °FPassing clouds.No wind87%30.09 "HgN/A
5:20 AM48 °FPassing clouds.No wind87%30.09 "HgN/A
4:50 AM48 °FPassing clouds.No wind87%30.09 "HgN/A
4:20 AM50 °FPassing clouds.5 mph82%30.12 "HgN/A
3:50 AM50 °FPassing clouds.5 mph82%30.12 "HgN/A
2:20 AM50 °FPassing clouds.5 mph82%30.12 "HgN/A
1:50 AM50 °FPassing clouds.5 mph82%30.12 "HgN/A
1:20 AM50 °FPassing clouds.5 mph88%30.15 "HgN/A
12:50 AM50 °FPassing clouds.5 mph88%30.15 "HgN/A
12:20 AM50 °FPassing clouds.5 mph88%30.15 "HgN/A
11:20 PM
Tue, Feb 9
50 °FPassing clouds.5 mph88%30.18 "HgN/A
10:50 PM50 °FPassing clouds.5 mph88%30.18 "HgN/A
10:20 PM50 °FPassing clouds.5 mph82%30.18 "HgN/A
9:50 PM50 °FPassing clouds.6 mph82%30.18 "HgN/A
9:20 PM50 °FPassing clouds.No wind82%30.18 "HgN/A
8:50 PM48 °FPassing clouds.No wind94%30.18 "HgN/A
8:20 PM48 °FPassing clouds.No wind94%30.18 "HgN/A
7:50 PM50 °FPassing clouds.No wind82%30.18 "HgN/A
7:20 PM50 °FPassing clouds.5 mph88%30.18 "HgN/A
6:50 PM52 °FPassing clouds.5 mph82%30.18 "HgN/A
6:20 PM54 °FPassing clouds.No wind82%30.18 "HgN/A
5:50 PM55 °FPassing clouds.No wind77%30.18 "HgN/A
5:20 PM57 °FPassing clouds.5 mph72%30.18 "HgN/A
4:50 PM57 °FPassing clouds.7 mph72%30.18 "HgN/A
4:20 PM57 °FPassing clouds.7 mph72%30.21 "HgN/A
3:50 PM59 °FPassing clouds.8 mph63%30.21 "HgN/A
3:20 PM59 °FPassing clouds.8 mph63%30.21 "HgN/A
2:50 PM59 °FScattered clouds.9 mph63%30.21 "HgN/A
2:20 PM59 °FScattered clouds.10 mph63%30.21 "HgN/A
1:50 PM59 °FScattered clouds.7 mph68%30.21 "HgN/A
1:20 PM59 °FScattered clouds.No wind63%30.27 "HgN/A
12:50 PM59 °FPassing clouds.6 mph68%30.21 "HgN/A
12:20 PM57 °FScattered clouds.No wind67%30.24 "HgN/A
11:50 AM57 °FPassing clouds.5 mph67%30.24 "HgN/A
11:20 AM55 °FPassing clouds.No wind67%30.27 "HgN/A
10:50 AM55 °FPassing clouds.No wind67%30.27 "HgN/A
9:50 AM52 °FSunny.No wind82%30.27 "Hg10 mi
9:20 AM52 °FSunny.No wind72%30.27 "Hg10 mi
8:50 AM50 °FScattered clouds.No wind76%30.30 "HgN/A
8:20 AM46 °FScattered clouds.No wind87%30.30 "HgN/A
7:50 AM45 °FScattered clouds.No wind76%30.24 "HgN/A
7:20 AM43 °FScattered clouds.No wind100%30.24 "HgN/A
Weather by CustomWeather, © 2016

See weather overviewHow to use our weather pages